Powrót do katalogu

KUIPER-00434

AktywnyŁącznośćLEO
NORAD 68938·PAYLOAD·🇺🇸 United States

Wystrzelony Apr 30, 2026 z Guiana Space Centre

Loading…

Następne Przeloty (najbliższe 24 godziny)

TLE

ŚwieżeSource: CelesTrak SupGP

Epoka: Sep 14, 2026, 19:37 UTC

1 68938C 26098V   26257.81744213 -.00012028  00000+0 -17093-2 0  2574
2 68938  51.9011  23.1430 0001543 127.1192  22.1191 14.76464810    10

Śledź KUIPER-00434 w czasie rzeczywistym z AllMySat

Download on the App Store